McConnell AFB, KS

1:32 PM CDT on September 20, 2019 (GMT -0500)
McConnell Air Force Base

Weather History for KIAB - May, 2019

Change the Weather History Date:

Saturday, May 4, 2019

  Actual Average Record
Temperature  
Mean Temperature 60 °F -  
Max Temperature 71 °F 72 °F 101 °F (2014)
Min Temperature 50 °F 51 °F 39 °F (2005)
Degree Days  
Heating Degree Days 5    
Growing Degree Days 10 (Base 50)    
Moisture  
Dew Point 52 °F    
Average Humidity 89    
Maximum Humidity 100    
Minimum Humidity 49    
Precipitation  
Precipitation 0.00 in - - ()
Sea Level Pressure  
Sea Level Pressure 29.99 in    
Wind  
Wind Speed 2 mph (ENE)    
Max Wind Speed 8 mph    
Max Gust Speed -    
Visibility 6 miles    
Events Fog    
Averages and records for this station are not official NWS values.
T = Trace of Precipitation, MM = Missing Value Source: NWS Daily Summary

Daily Weather History Graph

Daily Weather History Graph

Search for Another Location

Airport or City:

Astronomy

May. 04, 2019 Rise Set
Actual Time 6:30 AM CDT 8:21 PM CDT
Civil Twilight 6:02 AM CDT 8:50 PM CDT
Nautical Twilight 5:27 AM CDT 9:24 PM CDT
Astronomical Twilight 4:50 AM CDT 10:01 PM CDT
Moon 6:40 AM CDT (5/4) 8:13 PM CDT (5/4)
Length of Visible Light 14h 48m
Length of Day
13h 51m
Waning Crescent, 0% of the Moon is Illuminated
May 4
Waning Crescent
May 4
New
May 11
First Quarter
May 18
Full
May 26
Last Quarter

Hourly Weather History & Observations

Time (CDT) Temp. Dew Point Humidity Pressure Visibility Wind Dir Wind Speed Gust Speed Precip Events Conditions
12:56 AM 52.5 °F 52.2 °F 99% 29.98 in 10.0 mi ENE 5.8 mph - N/A   Clear
1:56 AM 52.0 °F 51.6 °F 99% 29.99 in 8.0 mi Calm Calm - N/A   Clear
2:09 AM 51.8 °F 51.8 °F 100% 29.99 in 1.9 mi Calm Calm - N/A   Clear
2:10 AM 51.8 °F 51.8 °F 100% 29.99 in 1.0 mi Calm Calm - N/A   Clear
2:12 AM 51.8 °F 51.8 °F 100% 29.99 in 0.5 mi Calm Calm - N/A Fog Fog
2:16 AM 51.8 °F 51.8 °F 100% 29.99 in 0.6 mi Calm Calm - N/A   Clear
2:20 AM 51.8 °F 51.8 °F 100% 29.99 in 0.5 mi Calm Calm - N/A Fog Fog
2:54 AM 50.0 °F 50.0 °F 100% 30.00 in 0.2 mi Calm Calm - N/A Fog Fog
2:56 AM 50.5 °F 50.2 °F 99% 29.99 in 0.2 mi Calm Calm - N/A Fog Fog
3:04 AM 51.8 °F 50.0 °F 94% 29.99 in 0.4 mi Calm Calm - N/A Fog Fog
3:05 AM 51.8 °F 50.0 °F 94% 29.99 in 0.5 mi Calm Calm - N/A Fog Fog
3:07 AM 50.0 °F 50.0 °F 100% 30.00 in 0.6 mi Calm Calm - N/A Fog Fog
3:09 AM 50.0 °F 50.0 °F 100% 29.99 in 0.8 mi Calm Calm - N/A Fog Fog
3:15 AM 50.0 °F 50.0 °F 100% 30.00 in 0.6 mi Calm Calm - N/A Fog Fog
3:16 AM 50.0 °F 50.0 °F 100% 30.00 in 0.8 mi Calm Calm - N/A Fog Fog
3:17 AM 50.0 °F 50.0 °F 100% 30.00 in 0.9 mi Calm Calm - N/A Fog Fog
3:18 AM 50.0 °F 50.0 °F 100% 30.00 in 1.4 mi Calm Calm - N/A Fog Fog
3:19 AM 50.0 °F 50.0 °F 100% 30.00 in 2.2 mi Calm Calm - N/A Fog Fog
3:20 AM 50.0 °F 48.2 °F 94% 30.00 in 3.0 mi Calm Calm - N/A Fog Fog
3:56 AM 50.9 °F 50.9 °F 100% 29.99 in 4.0 mi Calm Calm - N/A   Overcast
4:20 AM 53.6 °F 53.6 °F 100% 29.99 in 10.0 mi Calm Calm - N/A   Overcast
4:56 AM 53.4 °F 53.4 °F 100% 29.99 in 10.0 mi East 4.6 mph - N/A   Overcast
5:01 AM 53.6 °F 53.6 °F 100% 29.99 in 10.0 mi Calm Calm - N/A   Overcast
5:25 AM 53.6 °F 53.6 °F 100% 29.99 in 10.0 mi Calm Calm - N/A   Overcast
5:56 AM 53.2 °F 53.2 °F 100% 30.00 in 3.0 mi East 4.6 mph - N/A   Overcast
5:57 AM 53.6 °F 53.6 °F 100% 30.00 in 2.8 mi East 3.5 mph - N/A   Overcast
6:04 AM 53.6 °F 53.6 °F 100% 30.00 in 1.9 mi Calm Calm - N/A   Overcast
6:07 AM 53.6 °F 53.6 °F 100% 30.00 in 2.0 mi Calm Calm - N/A   Overcast
6:10 AM 53.6 °F 53.6 °F 100% 30.00 in 3.0 mi ENE 3.5 mph - N/A   Overcast
6:39 AM 53.6 °F 53.6 °F 100% 29.99 in 2.8 mi ENE 3.5 mph - N/A   Overcast
6:43 AM 53.6 °F 53.6 °F 100% 29.99 in 3.0 mi East 4.6 mph - N/A   Overcast
6:56 AM 52.7 °F 52.7 °F 100% 29.99 in 4.0 mi ENE 3.5 mph - N/A   Overcast
7:34 AM 51.8 °F 51.8 °F 100% 30.01 in 2.8 mi NNE 3.5 mph - N/A Fog Fog
7:40 AM 51.8 °F 51.8 °F 100% 30.01 in 3.0 mi NNE 3.5 mph - N/A Fog Fog
7:56 AM 52.2 °F 52.2 °F 100% 30.03 in 6.0 mi Calm Calm - N/A   Overcast
8:04 AM 51.8 °F 51.8 °F 100% 30.03 in 2.8 mi North 5.8 mph - N/A   Overcast
8:11 AM 51.8 °F 51.8 °F 100% 30.03 in 3.0 mi NNE 6.9 mph - N/A   Overcast
8:56 AM 53.1 °F 53.1 °F 100% 30.04 in 9.0 mi NNW 4.6 mph - N/A   Overcast
9:13 AM 53.6 °F 53.6 °F 100% 30.04 in 10.0 mi Calm Calm - N/A   Overcast
9:56 AM 54.1 °F 54.1 °F 100% 30.05 in 10.0 mi North 4.6 mph - N/A   Overcast
10:04 AM 53.6 °F 53.6 °F 100% 30.05 in 10.0 mi ENE 5.8 mph - N/A   Overcast
10:28 AM 55.4 °F 55.4 °F 100% 30.05 in 10.0 mi North 3.5 mph - N/A   Overcast
10:40 AM 55.4 °F 55.4 °F 100% 30.05 in 10.0 mi ENE 4.6 mph - N/A   Overcast
10:55 AM 57.2 °F 55.4 °F 94% 30.05 in 10.0 mi ENE 4.6 mph - N/A   Overcast
10:56 AM 57.6 °F 54.7 °F 90% 30.05 in 10.0 mi East 3.5 mph - N/A   Overcast
11:01 AM 59.0 °F 53.6 °F 82% 30.05 in 10.0 mi NE 3.5 mph - N/A   Overcast
11:24 AM 59.0 °F 53.6 °F 82% 30.05 in 10.0 mi NNE 3.5 mph - N/A   Overcast
11:51 AM 62.6 °F 53.6 °F 72% 30.02 in 10.0 mi ENE 8.1 mph - N/A   Scattered Clouds
11:56 AM 62.2 °F 53.8 °F 74% 30.02 in 10.0 mi East 5.8 mph - N/A   Partly Cloudy
12:15 PM 62.6 °F 51.8 °F 68% 30.02 in 10.0 mi NE 5.8 mph - N/A   Mostly Cloudy
12:20 PM 62.6 °F 51.8 °F 68% 30.02 in 10.0 mi ENE 3.5 mph - N/A   Mostly Cloudy
12:56 PM 62.6 °F 51.8 °F 68% 30.01 in 10.0 mi East 6.9 mph - N/A   Mostly Cloudy
1:56 PM 66.2 °F 52.0 °F 60% 29.99 in 10.0 mi NE 4.6 mph - N/A   Mostly Cloudy
2:01 PM 66.2 °F 53.6 °F 64% 29.99 in 10.0 mi NNE 5.8 mph - N/A   Mostly Cloudy
2:56 PM 67.8 °F 51.6 °F 56% 29.97 in 10.0 mi SE 6.9 mph - N/A   Partly Cloudy
3:56 PM 69.3 °F 50.9 °F 52% 29.95 in 10.0 mi Calm Calm - N/A   Clear
4:56 PM 70.0 °F 50.0 °F 49% 29.92 in 10.0 mi ESE 4.6 mph - N/A   Clear
5:56 PM 70.3 °F 51.3 °F 51% 29.90 in 10.0 mi SE 6.9 mph - N/A   Clear
6:56 PM 69.3 °F 50.9 °F 52% 29.88 in 10.0 mi SSE 8.1 mph - N/A   Clear
7:56 PM 65.8 °F 51.1 °F 59% 29.88 in 10.0 mi SSE 3.5 mph - N/A   Clear
8:56 PM 62.1 °F 52.2 °F 70% 29.88 in 10.0 mi SSE 4.6 mph - N/A   Clear
9:56 PM 60.4 °F 51.8 °F 73% 29.90 in 10.0 mi SSE 4.6 mph - N/A   Clear
10:56 PM 58.3 °F 51.8 °F 79% 29.91 in 10.0 mi South 8.1 mph - N/A   Clear
11:56 PM 57.9 °F 51.8 °F 80% 29.93 in 10.0 mi SSW 5.8 mph - N/A   Mostly Cloudy